IBE77G GCLP-LEMD

Flight info

Callsign IBE77G
Flight time 2h 31m
Altitude 36000
Route VASTO UN858 AKUDA DCT GIMAL DCT PESAS DCT PARKA DCT SOTUK
Aircraft A343/H-SDE2E3FGHIJ4J5M1RWXY/LB1D1

Departure

Time 2026-05-06 15:43
Airport Gran Canaria Airport (GCLP)

Arrival

Time 2026-05-06 18:14
Airport Adolfo Suárez Madrid–Barajas Airport (LEMD)
Time Latitude Longitude Altitude Speed Heading
2026-05-06 15:27 27.93513 -15.38954 88 ft 0 kts 291°
2026-05-06 15:32 27.93508 -15.38939 92 ft 4 kts 291°
2026-05-06 15:32 27.93499 -15.38915 92 ft 4 kts 287°
2026-05-06 15:32 27.93497 -15.38887 90 ft 4 kts 243°
2026-05-06 15:32 27.93515 -15.38869 92 ft 4 kts 199°
2026-05-06 15:33 27.93539 -15.38861 90 ft 2 kts 200°
2026-05-06 15:33 27.93540 -15.38860 90 ft 0 kts 201°
2026-05-06 15:37 27.93525 -15.38866 88 ft 6 kts 197°
2026-05-06 15:37 27.93464 -15.38855 87 ft 17 kts 163°
2026-05-06 15:38 27.93332 -15.38820 83 ft 21 kts 179°
2026-05-06 15:38 27.93187 -15.38866 84 ft 22 kts 200°
2026-05-06 15:38 27.93045 -15.38924 87 ft 21 kts 200°
2026-05-06 15:38 27.92909 -15.38984 88 ft 20 kts 201°
2026-05-06 15:39 27.92782 -15.39040 93 ft 19 kts 201°
2026-05-06 15:39 27.92668 -15.39089 97 ft 17 kts 200°
2026-05-06 15:39 27.92565 -15.39134 98 ft 15 kts 202°
2026-05-06 15:39 27.92472 -15.39177 101 ft 14 kts 202°
2026-05-06 15:40 27.92384 -15.39218 102 ft 13 kts 202°
2026-05-06 15:40 27.92303 -15.39254 104 ft 12 kts 200°
2026-05-06 15:40 27.92222 -15.39288 105 ft 13 kts 200°
2026-05-06 15:40 27.92122 -15.39330 102 ft 19 kts 201°
2026-05-06 15:41 27.91981 -15.39390 102 ft 18 kts 201°
2026-05-06 15:41 27.91906 -15.39334 96 ft 16 kts 101°
2026-05-06 15:41 27.91938 -15.39213 93 ft 13 kts 52°
2026-05-06 15:41 27.91979 -15.39191 90 ft 0 kts 21°
2026-05-06 15:42 27.91981 -15.39190 90 ft 3 kts 21°
2026-05-06 15:42 27.92194 -15.39097 89 ft 69 kts 21°
2026-05-06 15:42 27.92857 -15.38807 66 ft 134 kts 21°
2026-05-06 15:42 27.93875 -15.38348 304 ft 167 kts 22°
2026-05-06 15:43 27.94989 -15.37842 904 ft 178 kts 22°
2026-05-06 15:43 27.96166 -15.37328 1429 ft 189 kts 20°
2026-05-06 15:43 27.97479 -15.36764 1661 ft 217 kts 21°
2026-05-06 15:43 27.98969 -15.36126 2116 ft 236 kts 21°
2026-05-06 15:44 28.00504 -15.35468 2867 ft 241 kts 20°
2026-05-06 15:44 28.02097 -15.34787 3554 ft 249 kts 19°
2026-05-06 15:44 28.03732 -15.34086 3904 ft 253 kts 19°
2026-05-06 15:44 28.05384 -15.33377 3984 ft 254 kts 19°
2026-05-06 15:45 28.07045 -15.32655 4002 ft 257 kts 19°
2026-05-06 15:45 28.08713 -15.31928 3995 ft 257 kts 19°
2026-05-06 15:45 28.10382 -15.31201 3992 ft 258 kts 19°
2026-05-06 15:45 28.12063 -15.30469 3993 ft 260 kts 19°
2026-05-06 15:46 28.13751 -15.29742 4001 ft 259 kts 18°
2026-05-06 15:46 28.15471 -15.29159 4094 ft 256 kts 13°
2026-05-06 15:46 28.17205 -15.28661 4420 ft 260 kts 12°
2026-05-06 15:46 28.18975 -15.28161 5111 ft 264 kts 12°
2026-05-06 15:47 28.20770 -15.27652 5927 ft 267 kts 12°
2026-05-06 15:47 28.22582 -15.27136 6726 ft 270 kts 11°
2026-05-06 15:47 28.24418 -15.26614 7464 ft 274 kts 11°
2026-05-06 15:47 28.26279 -15.26084 8211 ft 278 kts 11°
2026-05-06 15:48 28.28172 -15.25544 8945 ft 282 kts 11°
2026-05-06 15:48 28.30089 -15.24997 9665 ft 286 kts 11°
2026-05-06 15:48 28.32032 -15.24416 10267 ft 294 kts 14°
2026-05-06 15:48 28.33952 -15.23427 10565 ft 314 kts 28°
2026-05-06 15:49 28.35845 -15.22053 10828 ft 332 kts 31°
2026-05-06 15:49 28.37811 -15.20562 11085 ft 348 kts 31°
2026-05-06 15:49 28.39852 -15.19018 11550 ft 356 kts 31°
2026-05-06 15:49 28.41930 -15.17452 12111 ft 361 kts 31°
2026-05-06 15:50 28.44041 -15.15866 12671 ft 366 kts 31°
2026-05-06 15:50 28.46182 -15.14261 13281 ft 370 kts 31°
2026-05-06 15:50 28.48344 -15.12641 13879 ft 375 kts 31°
2026-05-06 15:50 28.50536 -15.10999 14426 ft 379 kts 31°
2026-05-06 15:51 28.52750 -15.09340 14984 ft 382 kts 31°
2026-05-06 15:51 28.54980 -15.07668 15552 ft 386 kts 31°
2026-05-06 15:51 28.57229 -15.05982 16117 ft 389 kts 31°
2026-05-06 15:51 28.59499 -15.04278 16676 ft 392 kts 31°
2026-05-06 15:52 28.61784 -15.02563 17228 ft 396 kts 31°
2026-05-06 15:52 28.64094 -15.00829 17779 ft 399 kts 31°
2026-05-06 15:52 28.66422 -14.99080 18327 ft 403 kts 31°
2026-05-06 15:52 28.68775 -14.97311 18806 ft 406 kts 31°
2026-05-06 15:53 28.71143 -14.95530 19307 ft 409 kts 31°
2026-05-06 15:53 28.73522 -14.93740 19800 ft 412 kts 31°
2026-05-06 15:53 28.75927 -14.91928 20244 ft 416 kts 31°
2026-05-06 15:53 28.78344 -14.90108 20721 ft 419 kts 31°
2026-05-06 15:54 28.80785 -14.88267 21179 ft 421 kts 31°
2026-05-06 15:54 28.83238 -14.86417 21651 ft 424 kts 31°
2026-05-06 15:54 28.85703 -14.84557 22102 ft 427 kts 31°
2026-05-06 15:54 28.88190 -14.82680 22543 ft 430 kts 31°
2026-05-06 15:55 28.90694 -14.80789 22984 ft 433 kts 31°
2026-05-06 15:55 28.93207 -14.78888 23419 ft 435 kts 31°
2026-05-06 15:55 28.95740 -14.76971 23789 ft 438 kts 31°
2026-05-06 15:55 28.98284 -14.75045 24157 ft 440 kts 31°
2026-05-06 15:56 29.00844 -14.73106 24542 ft 442 kts 31°
2026-05-06 15:56 29.03409 -14.71161 24920 ft 444 kts 31°
2026-05-06 15:56 29.05950 -14.69234 25267 ft 445 kts 31°
2026-05-06 15:56 29.08534 -14.67273 25616 ft 447 kts 31°
2026-05-06 15:57 29.11133 -14.65300 25965 ft 449 kts 31°
2026-05-06 15:57 29.13739 -14.63320 26307 ft 450 kts 31°
2026-05-06 15:57 29.16354 -14.61332 26646 ft 452 kts 31°
2026-05-06 15:57 29.18977 -14.59337 26975 ft 454 kts 31°
2026-05-06 15:58 29.21612 -14.57331 27305 ft 456 kts 31°
2026-05-06 15:58 29.24265 -14.55311 27506 ft 460 kts 31°
2026-05-06 15:58 29.26944 -14.53270 27790 ft 463 kts 31°
2026-05-06 15:58 29.29627 -14.51223 28112 ft 464 kts 31°
2026-05-06 15:59 29.32320 -14.49168 28446 ft 465 kts 31°
2026-05-06 15:59 29.34110 -14.47801 28680 ft 466 kts 31°
2026-05-06 15:59 29.36818 -14.45732 28990 ft 467 kts 31°
2026-05-06 15:59 29.40412 -14.42985 29356 ft 470 kts 31°
2026-05-06 16:00 29.42251 -14.41578 29536 ft 471 kts 31°
2026-05-06 16:00 29.44981 -14.39488 29820 ft 472 kts 31°
2026-05-06 16:00 29.47721 -14.37390 30086 ft 474 kts 31°
2026-05-06 16:00 29.50432 -14.35312 30320 ft 475 kts 31°
2026-05-06 16:01 29.53189 -14.33198 30554 ft 476 kts 31°
2026-05-06 16:01 29.55949 -14.31079 30784 ft 477 kts 31°
2026-05-06 16:01 29.58712 -14.28957 31026 ft 479 kts 31°
2026-05-06 16:01 29.61484 -14.26827 31248 ft 480 kts 31°
2026-05-06 16:02 29.64254 -14.24696 31543 ft 479 kts 31°
2026-05-06 16:02 29.67013 -14.22573 31925 ft 476 kts 31°
2026-05-06 16:02 29.69762 -14.20455 32157 ft 477 kts 31°
2026-05-06 16:02 29.72537 -14.18318 32150 ft 483 kts 31°
2026-05-06 16:03 29.75333 -14.16163 32411 ft 483 kts 31°
2026-05-06 16:03 29.78118 -14.14017 32770 ft 480 kts 31°
2026-05-06 16:03 29.80888 -14.11878 33126 ft 478 kts 31°
2026-05-06 16:03 29.83646 -14.09745 33420 ft 477 kts 31°
2026-05-06 16:04 29.86397 -14.07616 33711 ft 476 kts 31°
2026-05-06 16:04 29.89136 -14.05496 33996 ft 475 kts 31°
2026-05-06 16:04 29.91878 -14.03373 34233 ft 474 kts 31°
2026-05-06 16:04 29.94610 -14.01256 34397 ft 474 kts 31°
2026-05-06 16:05 29.97359 -13.99126 34573 ft 475 kts 31°
2026-05-06 16:05 30.00102 -13.96997 34726 ft 475 kts 31°
2026-05-06 16:05 30.02850 -13.94864 34890 ft 476 kts 31°
2026-05-06 16:05 30.05595 -13.92731 35059 ft 476 kts 31°
2026-05-06 16:06 30.08345 -13.90594 35235 ft 476 kts 31°
2026-05-06 16:06 30.11096 -13.88454 35390 ft 477 kts 31°
2026-05-06 16:06 30.13846 -13.86313 35549 ft 477 kts 31°
2026-05-06 16:06 30.16601 -13.84167 35601 ft 480 kts 31°
2026-05-06 16:07 30.22198 -13.79804 35698 ft 486 kts 31°
2026-05-06 16:07 30.24992 -13.77622 35964 ft 484 kts 31°
2026-05-06 16:07 30.27786 -13.75439 36027 ft 484 kts 31°
2026-05-06 16:08 30.33325 -13.71106 36025 ft 478 kts 31°
2026-05-06 16:08 30.38837 -13.66790 36027 ft 478 kts 31°
2026-05-06 16:09 30.44349 -13.62468 36023 ft 478 kts 31°
2026-05-06 16:09 30.49862 -13.58140 36026 ft 479 kts 31°
2026-05-06 16:10 30.55368 -13.53800 36037 ft 478 kts 31°
2026-05-06 16:10 30.60845 -13.49432 36030 ft 477 kts 32°
2026-05-06 16:11 30.66331 -13.45049 36029 ft 481 kts 32°
2026-05-06 16:11 30.71856 -13.40638 36029 ft 482 kts 32°
2026-05-06 16:12 30.77380 -13.36223 36026 ft 482 kts 32°
2026-05-06 16:12 30.82901 -13.31806 36028 ft 482 kts 32°
2026-05-06 16:13 30.88418 -13.27384 36028 ft 481 kts 32°
2026-05-06 16:13 30.93941 -13.22963 36029 ft 481 kts 31°
2026-05-06 16:14 30.99437 -13.18599 36028 ft 481 kts 31°
2026-05-06 16:14 31.04974 -13.14202 36028 ft 481 kts 31°
2026-05-06 16:15 31.10511 -13.09795 36030 ft 484 kts 31°
2026-05-06 16:15 31.16092 -13.05344 36031 ft 485 kts 31°
2026-05-06 16:16 31.21659 -13.00895 36024 ft 484 kts 31°
2026-05-06 16:16 31.27219 -12.96447 36025 ft 484 kts 31°
2026-05-06 16:17 31.32778 -12.91993 36024 ft 484 kts 31°
2026-05-06 16:17 31.38296 -12.87565 36023 ft 484 kts 31°
2026-05-06 16:18 31.43852 -12.83101 36033 ft 484 kts 31°
2026-05-06 16:18 31.49391 -12.78643 36031 ft 482 kts 31°
2026-05-06 16:19 31.54927 -12.74182 36020 ft 485 kts 31°
2026-05-06 16:19 31.60504 -12.69683 36017 ft 487 kts 31°
2026-05-06 16:20 31.66087 -12.65169 36018 ft 488 kts 31°
2026-05-06 16:20 31.71679 -12.60642 36018 ft 488 kts 31°
2026-05-06 16:21 31.77258 -12.56118 36018 ft 487 kts 31°
2026-05-06 16:21 31.82829 -12.51596 36018 ft 487 kts 31°
2026-05-06 16:22 31.88403 -12.47064 36015 ft 487 kts 31°
2026-05-06 16:22 31.93977 -12.42525 36015 ft 487 kts 31°
2026-05-06 16:23 31.99559 -12.37978 36018 ft 489 kts 31°
2026-05-06 16:23 32.05184 -12.33404 36013 ft 491 kts 31°
2026-05-06 16:24 32.10781 -12.28844 36011 ft 491 kts 31°
2026-05-06 16:24 32.16397 -12.24260 36012 ft 491 kts 31°
2026-05-06 16:25 32.22015 -12.19669 36013 ft 491 kts 31°
2026-05-06 16:25 32.27629 -12.15074 36015 ft 491 kts 31°
2026-05-06 16:26 32.33241 -12.10472 36013 ft 490 kts 31°
2026-05-06 16:26 32.38822 -12.05888 36013 ft 487 kts 31°
2026-05-06 16:27 32.44395 -12.01307 36012 ft 490 kts 31°
2026-05-06 16:27 32.50026 -11.96673 36012 ft 494 kts 31°
2026-05-06 16:28 32.55673 -11.92014 36012 ft 494 kts 32°
2026-05-06 16:28 32.61313 -11.87354 36002 ft 494 kts 31°
2026-05-06 16:29 32.66936 -11.82699 36021 ft 491 kts 31°
2026-05-06 16:29 32.72542 -11.78053 36011 ft 491 kts 31°
2026-05-06 16:30 32.77200 -11.74188 36003 ft 491 kts 31°
2026-05-06 16:30 32.83750 -11.68744 36000 ft 491 kts 32°
2026-05-06 16:31 32.89354 -11.64078 36000 ft 491 kts 32°
2026-05-06 16:31 32.94916 -11.59439 36013 ft 491 kts 32°
2026-05-06 16:32 33.00511 -11.54766 35999 ft 491 kts 32°
2026-05-06 16:32 33.06104 -11.50077 36013 ft 491 kts 32°
2026-05-06 16:33 33.11707 -11.45388 35997 ft 491 kts 32°
2026-05-06 16:34 33.20091 -11.38353 36005 ft 488 kts 31°
2026-05-06 16:34 33.25612 -11.33673 36004 ft 486 kts 32°
2026-05-06 16:35 33.31125 -11.28984 36005 ft 488 kts 32°
2026-05-06 16:35 33.36644 -11.24290 36003 ft 491 kts 32°
2026-05-06 16:36 33.42213 -11.19548 36002 ft 491 kts 32°
2026-05-06 16:36 33.47773 -11.14805 36005 ft 490 kts 32°
2026-05-06 16:37 33.53322 -11.10064 36001 ft 489 kts 32°
2026-05-06 16:37 33.58866 -11.05321 36001 ft 489 kts 32°
2026-05-06 16:38 33.64400 -11.00579 36002 ft 489 kts 32°
2026-05-06 16:38 33.69938 -10.95826 36001 ft 489 kts 32°
2026-05-06 16:39 33.75486 -10.91056 35999 ft 491 kts 32°
2026-05-06 16:39 33.81050 -10.86266 35998 ft 492 kts 32°
2026-05-06 16:40 33.86617 -10.81464 35998 ft 492 kts 32°
2026-05-06 16:40 33.91242 -10.77468 35998 ft 492 kts 32°
2026-05-06 16:41 33.97701 -10.71879 35996 ft 492 kts 32°
2026-05-06 16:41 34.03260 -10.67064 36004 ft 492 kts 32°
2026-05-06 16:42 34.07913 -10.63047 35997 ft 490 kts 32°
2026-05-06 16:42 34.13457 -10.58254 35995 ft 490 kts 32°
2026-05-06 16:43 34.19010 -10.53444 35994 ft 493 kts 32°
2026-05-06 16:43 34.24588 -10.48601 35993 ft 494 kts 32°
2026-05-06 16:44 34.30169 -10.43746 36007 ft 494 kts 32°
2026-05-06 16:44 34.35753 -10.38878 35988 ft 494 kts 32°
2026-05-06 16:45 34.41285 -10.34050 35992 ft 493 kts 32°
2026-05-06 16:45 34.46857 -10.29179 35990 ft 493 kts 32°
2026-05-06 16:46 34.52429 -10.24299 35986 ft 493 kts 32°
2026-05-06 16:46 34.57994 -10.19417 35993 ft 493 kts 33°
2026-05-06 16:47 34.63571 -10.14517 35990 ft 495 kts 33°
2026-05-06 16:47 34.69155 -10.09603 35985 ft 496 kts 33°
2026-05-06 16:48 34.74737 -10.04681 35989 ft 496 kts 33°
2026-05-06 16:48 34.80323 -9.99747 35988 ft 496 kts 33°
2026-05-06 16:49 34.85901 -9.94812 35991 ft 495 kts 33°
2026-05-06 16:49 34.91427 -9.89914 35983 ft 494 kts 33°
2026-05-06 16:50 34.96975 -9.84989 35984 ft 494 kts 33°
2026-05-06 16:50 35.02536 -9.80044 35983 ft 495 kts 33°
2026-05-06 16:51 35.08116 -9.75074 35982 ft 496 kts 33°
2026-05-06 16:51 35.13689 -9.70101 35993 ft 496 kts 33°
2026-05-06 16:52 35.19162 -9.65202 35980 ft 475 kts 33°
2026-05-06 16:52 35.21792 -9.62843 35986 ft 464 kts 33°
2026-05-06 16:52 35.24386 -9.60517 35985 ft 462 kts 33°
2026-05-06 16:53 35.29547 -9.55895 35979 ft 463 kts 33°
2026-05-06 16:53 35.34749 -9.51228 35976 ft 463 kts 33°
2026-05-06 16:54 35.39945 -9.46554 35965 ft 463 kts 33°
2026-05-06 16:54 35.45131 -9.41879 35970 ft 462 kts 33°
2026-05-06 16:55 35.50311 -9.37202 35968 ft 462 kts 33°
2026-05-06 16:55 35.55491 -9.32519 35968 ft 462 kts 33°
2026-05-06 16:56 35.60669 -9.27830 35970 ft 462 kts 33°
2026-05-06 16:56 35.65848 -9.23131 35968 ft 462 kts 33°
2026-05-06 16:57 35.71022 -9.18430 35981 ft 462 kts 33°
2026-05-06 16:57 35.76203 -9.13715 35981 ft 463 kts 33°
2026-05-06 16:58 35.81372 -9.09003 35960 ft 463 kts 33°
2026-05-06 16:58 35.86539 -9.04284 35960 ft 461 kts 33°
2026-05-06 16:59 35.91682 -8.99580 35975 ft 460 kts 33°
2026-05-06 16:59 35.96768 -8.94759 35961 ft 462 kts 39°
2026-05-06 17:00 36.01516 -8.89395 35957 ft 463 kts 40°
2026-05-06 17:00 36.06198 -8.83921 35957 ft 463 kts 41°
2026-05-06 17:00 36.08385 -8.81009 35954 ft 466 kts 55°
2026-05-06 17:01 36.09852 -8.77432 35954 ft 466 kts 73°
2026-05-06 17:01 36.10998 -8.69620 35946 ft 467 kts 84°
2026-05-06 17:02 36.11585 -8.61605 35943 ft 468 kts 86°
2026-05-06 17:02 36.12102 -8.53570 35889 ft 468 kts 86°
2026-05-06 17:03 36.12609 -8.45543 35792 ft 467 kts 86°
2026-05-06 17:03 36.13972 -8.37743 35606 ft 463 kts 64°
2026-05-06 17:03 36.15540 -8.34297 35372 ft 458 kts 52°
2026-05-06 17:04 36.17542 -8.31262 35156 ft 453 kts 43°
2026-05-06 17:04 36.19783 -8.28545 35010 ft 449 kts 39°
2026-05-06 17:04 36.22138 -8.26009 34904 ft 447 kts 37°
2026-05-06 17:05 36.26922 -8.21129 34791 ft 443 kts 36°
2026-05-06 17:05 36.31649 -8.16241 34622 ft 441 kts 37°
2026-05-06 17:06 36.36310 -8.11300 34471 ft 440 kts 37°
2026-05-06 17:06 36.40938 -8.06341 34355 ft 439 kts 38°
2026-05-06 17:07 36.45551 -8.01385 34258 ft 438 kts 38°
2026-05-06 17:07 36.50157 -7.96434 34163 ft 437 kts 38°
2026-05-06 17:08 36.54755 -7.91485 34068 ft 437 kts 38°
2026-05-06 17:08 36.59317 -7.86569 33968 ft 436 kts 38°
2026-05-06 17:09 36.63882 -7.81640 33814 ft 433 kts 38°
2026-05-06 17:09 36.68436 -7.76716 33626 ft 432 kts 38°
2026-05-06 17:10 36.72969 -7.71806 33478 ft 431 kts 38°
2026-05-06 17:10 36.77495 -7.66895 33315 ft 431 kts 38°
2026-05-06 17:11 36.82012 -7.61988 33135 ft 430 kts 38°
2026-05-06 17:11 36.86507 -7.57094 33017 ft 426 kts 38°
2026-05-06 17:12 36.90963 -7.52236 32841 ft 424 kts 38°
2026-05-06 17:12 36.93187 -7.49809 32727 ft 424 kts 38°
2026-05-06 17:12 36.95405 -7.47387 32631 ft 424 kts 38°
2026-05-06 17:13 36.99837 -7.42540 32467 ft 423 kts 38°
2026-05-06 17:13 37.04258 -7.37698 32331 ft 422 kts 38°
2026-05-06 17:14 37.08665 -7.32864 32219 ft 421 kts 38°
2026-05-06 17:14 37.13059 -7.28034 32070 ft 419 kts 38°
2026-05-06 17:14 37.15249 -7.25624 31959 ft 419 kts 38°
2026-05-06 17:15 37.17436 -7.23216 31866 ft 418 kts 38°
2026-05-06 17:15 37.21809 -7.18396 31538 ft 419 kts 38°
2026-05-06 17:15 37.23994 -7.15985 31316 ft 418 kts 38°
2026-05-06 17:16 37.26174 -7.13576 31136 ft 417 kts 39°
2026-05-06 17:16 37.28345 -7.11176 30930 ft 415 kts 39°
2026-05-06 17:16 37.30511 -7.08778 30769 ft 414 kts 39°
2026-05-06 17:16 37.32664 -7.06393 30556 ft 413 kts 39°
2026-05-06 17:17 37.34816 -7.04009 30368 ft 412 kts 39°
2026-05-06 17:17 37.36964 -7.01627 30163 ft 411 kts 39°
2026-05-06 17:17 37.39098 -6.99257 29962 ft 409 kts 39°
2026-05-06 17:17 37.41230 -6.96889 29700 ft 408 kts 39°
2026-05-06 17:18 37.43361 -6.94521 29450 ft 407 kts 39°
2026-05-06 17:18 37.45471 -6.92172 29253 ft 405 kts 39°
2026-05-06 17:18 37.47546 -6.89862 29040 ft 403 kts 39°
2026-05-06 17:18 37.49641 -6.87527 28837 ft 401 kts 39°
2026-05-06 17:19 37.51753 -6.85171 28654 ft 400 kts 39°
2026-05-06 17:19 37.53833 -6.82850 28492 ft 399 kts 39°
2026-05-06 17:19 37.55913 -6.80528 28248 ft 399 kts 39°
2026-05-06 17:19 37.57981 -6.78216 28042 ft 397 kts 40°
2026-05-06 17:20 37.60017 -6.75938 27845 ft 395 kts 40°
2026-05-06 17:20 37.62067 -6.73643 27667 ft 394 kts 40°
2026-05-06 17:20 37.64110 -6.71354 27514 ft 393 kts 40°
2026-05-06 17:20 37.66150 -6.69067 27367 ft 391 kts 40°
2026-05-06 17:21 37.68177 -6.66792 27223 ft 390 kts 40°
2026-05-06 17:21 37.70202 -6.64518 27069 ft 389 kts 40°
2026-05-06 17:21 37.72218 -6.62251 26902 ft 388 kts 40°
2026-05-06 17:21 37.74231 -6.59988 26765 ft 387 kts 40°
2026-05-06 17:22 37.76238 -6.57729 26659 ft 386 kts 40°
2026-05-06 17:22 37.78236 -6.55479 26583 ft 385 kts 40°
2026-05-06 17:22 37.80234 -6.53227 26493 ft 384 kts 40°
2026-05-06 17:22 37.82223 -6.50983 26427 ft 382 kts 40°
2026-05-06 17:23 37.84204 -6.48747 26333 ft 382 kts 40°
2026-05-06 17:23 37.86185 -6.46508 26266 ft 381 kts 40°
2026-05-06 17:23 37.88163 -6.44272 26122 ft 382 kts 40°
2026-05-06 17:23 37.90145 -6.42030 26005 ft 381 kts 40°
2026-05-06 17:24 37.92119 -6.39794 25906 ft 381 kts 40°
2026-05-06 17:24 37.93425 -6.38315 25831 ft 380 kts 40°
2026-05-06 17:24 37.95394 -6.36082 25764 ft 380 kts 40°
2026-05-06 17:24 37.97362 -6.33849 25691 ft 379 kts 40°
2026-05-06 17:25 37.99322 -6.31624 25596 ft 378 kts 40°
2026-05-06 17:25 38.01272 -6.29407 25495 ft 377 kts 40°
2026-05-06 17:25 38.03223 -6.27189 25415 ft 376 kts 40°
2026-05-06 17:25 38.05166 -6.24977 25357 ft 375 kts 40°
2026-05-06 17:26 38.07110 -6.22764 25321 ft 374 kts 40°
2026-05-06 17:26 38.09042 -6.20562 25258 ft 374 kts 40°
2026-05-06 17:26 38.10974 -6.18358 25192 ft 373 kts 40°
2026-05-06 17:26 38.12908 -6.16151 25136 ft 373 kts 41°
2026-05-06 17:27 38.14834 -6.13951 25079 ft 372 kts 41°
2026-05-06 17:27 38.16761 -6.11749 25033 ft 372 kts 41°
2026-05-06 17:27 38.18685 -6.09547 24980 ft 372 kts 41°
2026-05-06 17:27 38.20610 -6.07344 24913 ft 372 kts 40°
2026-05-06 17:28 38.22532 -6.05141 24819 ft 372 kts 41°
2026-05-06 17:28 38.24450 -6.02943 24725 ft 370 kts 41°
2026-05-06 17:28 38.26360 -6.00751 24638 ft 370 kts 41°
2026-05-06 17:28 38.28267 -5.98562 24548 ft 369 kts 41°
2026-05-06 17:29 38.30172 -5.96372 24475 ft 368 kts 41°
2026-05-06 17:29 38.32052 -5.94212 24412 ft 368 kts 41°
2026-05-06 17:29 38.33946 -5.92032 24291 ft 366 kts 41°
2026-05-06 17:29 38.35830 -5.89863 24061 ft 365 kts 41°
2026-05-06 17:30 38.37719 -5.87686 23902 ft 364 kts 41°
2026-05-06 17:30 38.39595 -5.85523 23758 ft 363 kts 41°
2026-05-06 17:30 38.41465 -5.83364 23654 ft 363 kts 41°
2026-05-06 17:30 38.43339 -5.81200 23604 ft 363 kts 41°
2026-05-06 17:31 38.45206 -5.79042 23547 ft 362 kts 41°
2026-05-06 17:31 38.47066 -5.76891 23447 ft 361 kts 41°
2026-05-06 17:31 38.48928 -5.74736 23379 ft 360 kts 41°
2026-05-06 17:31 38.50782 -5.72588 23290 ft 360 kts 41°
2026-05-06 17:32 38.52634 -5.70441 23230 ft 359 kts 41°
2026-05-06 17:32 38.54482 -5.68297 23172 ft 358 kts 41°
2026-05-06 17:32 38.56318 -5.66166 23113 ft 356 kts 41°
2026-05-06 17:32 38.58151 -5.64036 23022 ft 355 kts 41°
2026-05-06 17:33 38.59979 -5.61912 22945 ft 355 kts 41°
2026-05-06 17:33 38.61803 -5.59790 22863 ft 354 kts 41°
2026-05-06 17:33 38.63624 -5.57671 22794 ft 354 kts 41°
2026-05-06 17:33 38.65439 -5.55556 22733 ft 353 kts 41°
2026-05-06 17:34 38.67256 -5.53438 22669 ft 353 kts 41°
2026-05-06 17:34 38.69045 -5.51350 22627 ft 352 kts 41°
2026-05-06 17:34 38.70855 -5.49238 22564 ft 352 kts 41°
2026-05-06 17:34 38.72662 -5.47126 22521 ft 352 kts 41°
2026-05-06 17:35 38.74466 -5.45016 22449 ft 351 kts 41°
2026-05-06 17:35 38.76271 -5.42905 22399 ft 351 kts 41°
2026-05-06 17:35 38.78071 -5.40797 22348 ft 350 kts 41°
2026-05-06 17:36 38.81647 -5.36605 22221 ft 347 kts 41°
2026-05-06 17:36 38.83430 -5.34514 22165 ft 347 kts 41°
2026-05-06 17:36 38.85206 -5.32429 22109 ft 346 kts 41°
2026-05-06 17:36 38.86982 -5.30341 22045 ft 346 kts 41°
2026-05-06 17:37 38.88758 -5.28254 21988 ft 346 kts 41°
2026-05-06 17:37 38.90530 -5.26169 21920 ft 345 kts 41°
2026-05-06 17:37 38.92302 -5.24082 21881 ft 345 kts 41°
2026-05-06 17:37 38.94070 -5.21998 21821 ft 345 kts 41°
2026-05-06 17:38 38.95813 -5.19943 21765 ft 344 kts 41°
2026-05-06 17:38 38.97599 -5.17837 21723 ft 344 kts 41°
2026-05-06 17:38 38.99292 -5.15668 21660 ft 344 kts 48°
2026-05-06 17:38 39.00745 -5.13285 21585 ft 344 kts 56°
2026-05-06 17:39 39.02053 -5.10712 21511 ft 343 kts 57°
2026-05-06 17:39 39.03317 -5.08118 21441 ft 342 kts 58°
2026-05-06 17:39 39.04569 -5.05524 21338 ft 341 kts 58°
2026-05-06 17:39 39.05751 -5.02886 21311 ft 341 kts 66°
2026-05-06 17:40 39.06452 -4.99996 21310 ft 338 kts 84°
2026-05-06 17:40 39.06376 -4.97010 21310 ft 332 kts 107°
2026-05-06 17:40 39.05543 -4.94285 21308 ft 327 kts 120°
2026-05-06 17:40 39.04328 -4.91827 21309 ft 324 kts 135°
2026-05-06 17:41 39.02647 -4.89965 21303 ft 315 kts 155°
2026-05-06 17:41 39.00619 -4.89029 20986 ft 309 kts 178°
2026-05-06 17:41 38.98522 -4.89214 20677 ft 299 kts 200°
2026-05-06 17:41 38.96695 -4.90370 20410 ft 291 kts 220°
2026-05-06 17:42 38.95381 -4.92294 20103 ft 288 kts 245°
2026-05-06 17:42 38.94986 -4.94797 19778 ft 290 kts 270°
2026-05-06 17:42 38.95291 -4.97360 19482 ft 293 kts 283°
2026-05-06 17:42 38.96004 -4.99817 19180 ft 296 kts 294°
2026-05-06 17:43 38.97204 -5.01978 18890 ft 300 kts 313°
2026-05-06 17:43 38.98968 -5.03440 18607 ft 307 kts 338°
2026-05-06 17:43 39.01085 -5.03812 18328 ft 312 kts
2026-05-06 17:43 39.03155 -5.02945 18022 ft 317 kts 31°
2026-05-06 17:44 39.04832 -5.01117 17740 ft 317 kts 46°
2026-05-06 17:44 39.06275 -4.98975 17506 ft 316 kts 51°
2026-05-06 17:44 39.07553 -4.96692 17230 ft 314 kts 57°
2026-05-06 17:44 39.08654 -4.94301 16979 ft 312 kts 62°
2026-05-06 17:45 39.09586 -4.91780 16874 ft 312 kts 68°
2026-05-06 17:45 39.10332 -4.89163 16992 ft 311 kts 73°
2026-05-06 17:45 39.10888 -4.86459 17461 ft 314 kts 79°
2026-05-06 17:45 39.11260 -4.83673 17861 ft 315 kts 84°
2026-05-06 17:46 39.11447 -4.80862 17951 ft 314 kts 89°
2026-05-06 17:46 39.11440 -4.78056 17950 ft 313 kts 95°
2026-05-06 17:46 39.11239 -4.75261 17947 ft 313 kts 100°
2026-05-06 17:46 39.10818 -4.72520 17936 ft 311 kts 112°
2026-05-06 17:47 39.09682 -4.70233 17966 ft 300 kts 138°
2026-05-06 17:47 39.08418 -4.68088 17949 ft 307 kts 115°
2026-05-06 17:47 39.08068 -4.65382 17954 ft 311 kts 84°
2026-05-06 17:47 39.08663 -4.62709 17957 ft 314 kts 68°
2026-05-06 17:48 39.09720 -4.60250 17947 ft 316 kts 51°
2026-05-06 17:48 39.11221 -4.58201 17956 ft 315 kts 41°
2026-05-06 17:48 39.12871 -4.56327 17950 ft 316 kts 39°
2026-05-06 17:48 39.14534 -4.54532 17957 ft 315 kts 38°
2026-05-06 17:49 39.16227 -4.52739 17958 ft 316 kts 38°
2026-05-06 17:49 39.17932 -4.50949 17959 ft 316 kts 37°
2026-05-06 17:49 39.19635 -4.49169 17958 ft 316 kts 37°
2026-05-06 17:49 39.21346 -4.47384 17959 ft 316 kts 37°
2026-05-06 17:50 39.23056 -4.45602 17952 ft 315 kts 37°
2026-05-06 17:50 39.24761 -4.43826 17955 ft 315 kts 37°
2026-05-06 17:50 39.26467 -4.42047 17961 ft 315 kts 37°
2026-05-06 17:50 39.28175 -4.40265 17963 ft 316 kts 37°
2026-05-06 17:51 39.29889 -4.38477 17960 ft 316 kts 37°
2026-05-06 17:51 39.31605 -4.36684 17960 ft 317 kts 37°
2026-05-06 17:51 39.33317 -4.34896 17958 ft 317 kts 37°
2026-05-06 17:51 39.35031 -4.33104 17961 ft 317 kts 37°
2026-05-06 17:52 39.36723 -4.31334 17960 ft 317 kts 37°
2026-05-06 17:52 39.38456 -4.29519 17961 ft 316 kts 37°
2026-05-06 17:52 39.40167 -4.27727 17961 ft 316 kts 37°
2026-05-06 17:52 39.41855 -4.25958 17963 ft 317 kts 37°
2026-05-06 17:53 39.43567 -4.24163 17961 ft 317 kts 37°
2026-05-06 17:53 39.45276 -4.22369 17963 ft 317 kts 37°
2026-05-06 17:53 39.46987 -4.20572 17964 ft 317 kts 37°
2026-05-06 17:53 39.48697 -4.18775 17963 ft 317 kts 37°
2026-05-06 17:54 39.50404 -4.16979 17966 ft 317 kts 37°
2026-05-06 17:54 39.52116 -4.15177 17966 ft 317 kts 37°
2026-05-06 17:54 39.53825 -4.13378 17938 ft 317 kts 37°
2026-05-06 17:54 39.55546 -4.11566 17610 ft 319 kts 37°
2026-05-06 17:55 39.57257 -4.09760 17420 ft 315 kts 37°
2026-05-06 17:55 39.58950 -4.07974 17184 ft 313 kts 37°
2026-05-06 17:55 39.60633 -4.06197 16927 ft 311 kts 37°
2026-05-06 17:55 39.62307 -4.04428 16690 ft 309 kts 37°
2026-05-06 17:56 39.63973 -4.02668 16447 ft 308 kts 38°
2026-05-06 17:56 39.65629 -4.00915 16206 ft 306 kts 38°
2026-05-06 17:56 39.67272 -3.99177 15955 ft 305 kts 38°
2026-05-06 17:56 39.68914 -3.97438 15744 ft 303 kts 38°
2026-05-06 17:57 39.70545 -3.95708 15516 ft 302 kts 38°
2026-05-06 17:57 39.72167 -3.93989 15297 ft 300 kts 38°
2026-05-06 17:57 39.73781 -3.92276 15074 ft 299 kts 38°
2026-05-06 17:57 39.75392 -3.90566 14849 ft 299 kts 38°
2026-05-06 17:58 39.76998 -3.88859 14618 ft 298 kts 38°
2026-05-06 17:58 39.78596 -3.87160 14405 ft 296 kts 39°
2026-05-06 17:58 39.80185 -3.85470 14164 ft 294 kts 39°
2026-05-06 17:58 39.81768 -3.83785 13900 ft 293 kts 39°
2026-05-06 17:59 39.83341 -3.82110 13643 ft 292 kts 39°
2026-05-06 17:59 39.84907 -3.80440 13323 ft 291 kts 39°
2026-05-06 17:59 39.86473 -3.78771 13028 ft 289 kts 39°
2026-05-06 17:59 39.88021 -3.77119 12704 ft 286 kts 39°
2026-05-06 18:00 39.89556 -3.75479 12249 ft 284 kts 39°
2026-05-06 18:00 39.91074 -3.73858 11799 ft 281 kts 39°
2026-05-06 18:00 39.92502 -3.72139 11304 ft 278 kts 53°
2026-05-06 18:00 39.93430 -3.69950 10907 ft 276 kts 68°
2026-05-06 18:01 39.94134 -3.67634 10673 ft 274 kts 70°
2026-05-06 18:01 39.94802 -3.65320 10490 ft 271 kts 70°
2026-05-06 18:01 39.95451 -3.63060 10285 ft 269 kts 70°
2026-05-06 18:01 39.96104 -3.60784 10073 ft 267 kts 70°
2026-05-06 18:02 39.96752 -3.58522 9854 ft 266 kts 70°
2026-05-06 18:02 39.97401 -3.56268 9606 ft 265 kts 70°
2026-05-06 18:02 39.98038 -3.54023 9369 ft 263 kts 70°
2026-05-06 18:02 39.98655 -3.51779 9097 ft 263 kts 70°
2026-05-06 18:03 39.99268 -3.49540 8830 ft 262 kts 70°
2026-05-06 18:03 39.99878 -3.47309 8591 ft 260 kts 70°
2026-05-06 18:03 40.00485 -3.45090 8339 ft 260 kts 70°
2026-05-06 18:03 40.01093 -3.42868 8075 ft 259 kts 71°
2026-05-06 18:04 40.01702 -3.40669 7825 ft 257 kts 71°
2026-05-06 18:04 40.02313 -3.38476 7579 ft 256 kts 70°
2026-05-06 18:04 40.03007 -3.36348 7307 ft 255 kts 57°
2026-05-06 18:04 40.04271 -3.34799 7150 ft 249 kts 27°
2026-05-06 18:05 40.05880 -3.34088 7069 ft 240 kts 13°
2026-05-06 18:05 40.07491 -3.33659 6981 ft 233 kts 11°
2026-05-06 18:05 40.09063 -3.33314 6892 ft 225 kts
2026-05-06 18:05 40.10596 -3.33123 6804 ft 217 kts
2026-05-06 18:06 40.12080 -3.32987 6714 ft 210 kts
2026-05-06 18:06 40.13523 -3.32933 6569 ft 205 kts
2026-05-06 18:06 40.14938 -3.33100 6366 ft 203 kts 349°
2026-05-06 18:06 40.15843 -3.33411 6226 ft 203 kts 340°
2026-05-06 18:07 40.17564 -3.34344 5936 ft 201 kts 338°
2026-05-06 18:07 40.18444 -3.34802 5779 ft 201 kts 339°
2026-05-06 18:07 40.20166 -3.35674 5516 ft 199 kts 339°
2026-05-06 18:07 40.21038 -3.36111 5486 ft 199 kts 340°
2026-05-06 18:08 40.22330 -3.36767 5483 ft 199 kts 339°
2026-05-06 18:08 40.23606 -3.37410 5510 ft 189 kts 340°
2026-05-06 18:08 40.24792 -3.38016 5509 ft 180 kts 339°
2026-05-06 18:08 40.25959 -3.38612 5492 ft 180 kts 339°
2026-05-06 18:09 40.27141 -3.39141 5482 ft 180 kts 351°
2026-05-06 18:09 40.28389 -3.39197 5492 ft 179 kts
2026-05-06 18:09 40.29635 -3.39197 5487 ft 180 kts 353°
2026-05-06 18:09 40.30818 -3.39714 5490 ft 181 kts 331°
2026-05-06 18:10 40.31846 -3.40664 5492 ft 180 kts 322°
2026-05-06 18:10 40.32807 -3.41672 5344 ft 174 kts 323°
2026-05-06 18:10 40.33751 -3.42632 5127 ft 170 kts 323°
2026-05-06 18:10 40.34682 -3.43571 4891 ft 168 kts 322°
2026-05-06 18:11 40.35589 -3.44491 4658 ft 163 kts 322°
2026-05-06 18:11 40.36462 -3.45379 4439 ft 155 kts 322°
2026-05-06 18:11 40.37307 -3.46237 4235 ft 154 kts 322°
2026-05-06 18:11 40.38155 -3.47096 4018 ft 154 kts 322°
2026-05-06 18:12 40.39003 -3.47956 3830 ft 154 kts 322°
2026-05-06 18:12 40.39852 -3.48818 3617 ft 154 kts 322°
2026-05-06 18:12 40.40697 -3.49676 3423 ft 153 kts 322°
2026-05-06 18:12 40.41541 -3.50534 3229 ft 153 kts 322°
2026-05-06 18:13 40.42384 -3.51390 2981 ft 153 kts 322°
2026-05-06 18:13 40.43220 -3.52240 2774 ft 150 kts 322°
2026-05-06 18:13 40.44039 -3.53074 2576 ft 149 kts 322°
2026-05-06 18:13 40.44859 -3.53912 2360 ft 150 kts 321°
2026-05-06 18:14 40.45678 -3.54758 2114 ft 149 kts 322°
2026-05-06 18:14 40.46494 -3.55569 1974 ft 147 kts 322°
2026-05-06 18:14 40.47142 -3.56223 1987 ft 77 kts 322°
2026-05-06 18:14 40.47374 -3.56464 1995 ft 30 kts 320°
2026-05-06 18:15 40.47515 -3.56681 1998 ft 27 kts 297°
2026-05-06 18:15 40.47557 -3.56793 1998 ft 16 kts 296°
2026-05-06 18:15 40.47574 -3.56840 1998 ft 0 kts 296°
2026-05-06 18:16 40.47576 -3.56845 1998 ft 5 kts 296°
2026-05-06 18:17 40.47607 -3.56928 1998 ft 11 kts 296°
2026-05-06 18:17 40.47639 -3.57024 2000 ft 11 kts 281°
2026-05-06 18:17 40.47662 -3.57141 2000 ft 16 kts 310°
2026-05-06 18:17 40.47758 -3.57247 2002 ft 21 kts 320°
2026-05-06 18:18 40.47881 -3.57370 2004 ft 22 kts 323°
2026-05-06 18:18 40.48003 -3.57496 2002 ft 23 kts 322°
2026-05-06 18:18 40.48133 -3.57630 2000 ft 25 kts 322°
2026-05-06 18:18 40.48274 -3.57772 1998 ft 26 kts 324°
2026-05-06 18:19 40.48425 -3.57909 1996 ft 26 kts 328°
2026-05-06 18:19 40.48565 -3.58024 2004 ft 21 kts 328°
2026-05-06 18:19 40.48699 -3.58047 2007 ft 20 kts
2026-05-06 18:19 40.48833 -3.58042 2003 ft 18 kts 18°
2026-05-06 18:20 40.48858 -3.57957 2003 ft 16 kts 95°
2026-05-06 18:20 40.48856 -3.57738 1996 ft 27 kts 90°
2026-05-06 18:20 40.48856 -3.57487 1992 ft 28 kts 90°
2026-05-06 18:20 40.48856 -3.57226 1987 ft 29 kts 90°
2026-05-06 18:21 40.48867 -3.57037 1987 ft 13 kts 58°
2026-05-06 18:21 40.48949 -3.57000 1983 ft 13 kts
2026-05-06 18:21 40.49037 -3.57006 1983 ft 12 kts 359°
2026-05-06 18:21 40.49056 -3.56977 1984 ft 3 kts 89°
2026-05-06 18:22 40.49056 -3.56929 1985 ft 3 kts 89°
2026-05-06 18:22 40.49056 -3.56921 1985 ft 0 kts 89°
2026-05-06 18:22 40.49056 -3.56909 1984 ft 3 kts 89°
2026-05-06 18:22 40.49057 -3.56887 1984 ft 1 kts 88°
2026-05-06 18:23 40.49057 -3.56863 1983 ft 0 kts 89°